Flag for Senegal

Past Weather in Dakar, Senegal — Yesterday and Last 2 Weeks

Now
86 °F

Passing clouds.


Feels Like: 92 °F
Forecast: 85 / 80 °F
Wind: 14 mph from West

Location: Dakar / Yoff

Current Time: Jul 9, 2020 at 3:22:09 pm

Latest Report: Jul 9, 2020 at 2:00 pm


Visibility: N/A

Pressure: 29.80 "Hg

Humidity: 62%

Dew Point: 72 °F

Location of DakarLocation

Past Weather in Dakar — Graph

°F

Dakar Temperature Yesterday

Maximum temperature yesterday: 88 °F (at 4:00 pm)
Minimum temperature yesterday: 81 °F (at 1:00 am)
Average temperature yesterday: 84 °F

High & Low Weather Summary for the Past Weeks

 TemperatureHumidityPressure
High91 °F (Jun 24, 2:00 pm)89% (Jun 24, 9:00 pm)30.01 "Hg (Jun 24, 9:00 pm)
Low73 °F (Jun 27, 3:00 pm)41% (Jun 27, 3:00 pm)29.77 "Hg (Jul 9, 3:00 am)
Average83 °F75%29.87 "Hg
* Reported Jun 24 2:00 pm — Jul 9 2:00 pm, Dakar. Weather by CustomWeather, © 2020

Note: Actual official high and low records may vary slightly from our data, if they occured in-between our weather recording intervals... More about our weather records

Dakar Weather History for the Previous 24 Hours

Scroll right to see more
 ConditionsComfort  
Time TempWeatherWind HumidityBarometerVisibility
2:00 pm
Thu, Jul 9
86 °FPassing clouds.14 mph62%29.80 "HgN/A
1:00 pm86 °FPassing clouds.2 mph62%29.83 "HgN/A
12:00 pm84 °FPassing clouds.12 mph66%29.83 "HgN/A
11:00 am84 °FPartly sunny.14 mph66%29.86 "HgN/A
10:00 am82 °FPartly sunny.12 mph70%29.83 "HgN/A
9:00 am81 °FPartly sunny.9 mph74%29.83 "HgN/A
8:00 am81 °FPartly sunny.14 mph74%29.83 "HgN/A
7:00 am81 °FPartly sunny.14 mph79%29.80 "HgN/A
6:00 am81 °FPassing clouds.14 mph79%29.77 "HgN/A
4:00 am81 °FPassing clouds.14 mph79%29.77 "HgN/A
3:00 am81 °FPassing clouds.14 mph79%29.77 "HgN/A
2:00 am81 °FClear.12 mph84%29.80 "Hg10 mi
1:00 am81 °FClear.9 mph84%29.80 "Hg10 mi
11:00 pm
Wed, Jul 8
81 °FClear.12 mph84%29.86 "Hg10 mi
9:00 pm82 °FClear.14 mph74%29.83 "Hg10 mi
6:00 pm84 °FPassing clouds.14 mph74%29.80 "HgN/A
5:00 pm86 °FPassing clouds.14 mph70%29.83 "HgN/A
4:00 pm88 °FPassing clouds.14 mph66%29.83 "HgN/A
3:00 pm86 °FPassing clouds.16 mph70%29.86 "HgN/A
Weather by CustomWeather, © 2020

See weather overview